Regional Weather Roundup
Issued by NWS Kansas City/Pleasant Hill, MO

Home | Current Version | Previous Version | Text Only | Print | Product List | Glossary On
Versions: 1 2 3 4 5 6 7 8 9 10 11 12 13 14 15 16 17 18 19 20 21 22 23 24 25 26 27 28 29 30 31 32 33 34 35 36 37 38 39 40 41 42 43 44 45 46 47 48 49 50
000
ASUS43 KEAX 041410
RWREAX

WEATHER ROUNDUP FOR EASTERN KANSAS AND NORTHWEST MISSOURI
NATIONAL WEATHER SERVICE KANSAS CITY/PLEASANT HILL MO
900 AM CDT WED MAY 04 2016

KSZ040-057-103>105-MOZ028-029-037-043-041500-
...KANSAS CITY METROPOLITAN AREA...

CITY           SKY/WX    TMP DP  RH WIND       PRES   REMARKS
K.C. INTL      SUNNY     58  39  49 N14G20    29.94R
K.C. DOWNTOWN  SUNNY     60  39  45 N10       29.93R
LEES SUMMIT    SUNNY     60  41  49 N12       29.93R
OLATHE - IXD   SUNNY     59  41  51 NW17      29.95R
OLATHE - OJC   SUNNY     58  38  47 N14       29.94R
LAWRENCE       SUNNY     59  41  51 N17       29.96R

$$

MOZ001>008-011>017-020>025-030>033-038>040-044>046-053-054-041500-
...NORTHERN AND CENTRAL MISSOURI...

CITY           SKY/WX    TMP DP  RH WIND       PRES   REMARKS
ST. JOSEPH     SUNNY     58  40  51 N15       29.96R
MOSBY          SUNNY     57  39  51 NW12      29.93R
WARRENSBURG    SUNNY     59  41  51 NW13      29.90R
WHITEMAN AFB   SUNNY     59  42  53 NW17      29.87R
CLINTON        SUNNY     61  45  55 NW12      29.89R
SEDALIA        SUNNY     61  45  55 NW16      29.88R
WARSAW         NOT AVBL
CHILLICOTHE      N/A     58  44  60 MISG      29.92R
KIRKSVILLE     SUNNY     57  44  62 N16       29.88R

$$

MOZ041-047>049-056>058-063>065-088>090-097-041500-
...EASTERN AND SOUTHERN MISSOURI...

CITY           SKY/WX    TMP DP  RH WIND       PRES   REMARKS
ST. LOUIS INTL MOSUNNY   63  46  54 N15G23    29.75R
SPIRIT OF STL  SUNNY     62  47  57 N15G22    29.75R
COLUMBIA       SUNNY     60  46  59 N18       29.83R
JEFFERSON CITY SUNNY     62  45  53 NW12      29.82R
ROLLA          SUNNY     59  47  64 NW15G22   29.79R
OSAGE BEACH    SUNNY     61  41  48 W6        29.84R
SPRINGFIELD    SUNNY     61  45  55 NW13G21   29.88R
BRANSON        SUNNY     61  46  59 W9G16     29.90F
JOPLIN         SUNNY     61  48  62 NW15      29.94R
WEST PLAINS    MOSUNNY   58  45  62 W14G21    29.84F

$$

IAZ060-094-KSZ022-034>040-054-083-096-NEZ052-066-093-041500-
...KANSAS...SOUTHEAST NEBRASKA AND IOWA...

CITY           SKY/WX    TMP DP  RH WIND       PRES   REMARKS
TOPEKA         SUNNY     60  40  47 N16G23    29.98R
MANHATTAN      SUNNY     61  39  44 N9        30.03R
EMPORIA        SUNNY     60  43  53 N10       29.99R
CHANUTE        SUNNY     62  47  57 NW12      29.97R
WICHITA        SUNNY     61  46  57 NW14      30.03R
OMAHA          SUNNY     54  38  54 N14       30.03R
LINCOLN        SUNNY     57  36  45 N16       30.07R
FALLS CITY     SUNNY     57  39  51 N13       29.99R
LAMONI         SUNNY     55  40  56 N14       29.93R
DES MOINES     SUNNY     56  38  50 NE14      29.95R

$$




USA.gov is the U.S. government's official web portal to all federal, state and local government web resources and services.